sat.trackr.live / text

‹ back to catalog

STARLINK-6203

NORAD 56899 · 2023-083Z

PAYLOAD ACTIVE UNKNOWN

§ Identity

Operator
Country
US
Launch date
2023-06-12
Launch site
AFETR
Launch vehicle
Mass (kg)
RCS (m²)

Purposes: comms

External: N2YO · Heavens-Above · Gunter

§ Orbital elements

Epoch: 2026-05-25T01:21:34.299072Z

Period
94.27 min
Inclination
43.0039°
Eccentricity
0.0001125
Mean motion
15.27581954 rev/d
Perigee alt
482.3 km
Apogee alt
483.8 km
Semi-major
6,861.2 km
B*
4.1715e-5
RAAN
10.1664°
Arg perigee
254.8556°
Mean anomaly
105.2172°
Rev number
16,345

§ Raw data

STARLINK-62031 56899U 23083Z   26145.05664698  .00000886  00000+0  41715-4 0  99982 56899  43.0039  10.1664 0001125 254.8556 105.2172 15.27581954163454

JSON: /api/v1/satellites/56899 · /tle

For live sub-satellite position, see the globe view (requires WebGL).

§ Visibility from observer

Set your observer location to see the next 7 days of passes ≥ 10°. The values pass through the URL so the page stays shareable.

No JS? Fill the form by hand. The geolocation button needs JavaScript.